"Pseudo-MPEC" for P21kWrT

Created 2021 Sep 16 13:07:25 UT using Find_Orb

Click here for an explanation of pseudo-MPECs

 
 Astrometry: 
     P21kWrT  C2021 09 11('m;MKkm@5_59f1O2AU^qlZ.hcwtYAstrometryYULO(x+MEGH4,F52
     P21kWrT  C2021 09 11]MMHV9redacted;C2QoX1#GOclickUu.hPZ=22H_WJ-FVhereDM]F52
     P21kWrT  C2021 09 11F*wDp(9N:Oiq$forw:explanationT1W@DZZU*AU:f)xf3O0]WIeF52

Station data:
(F52) Pan-STARRS 2, Haleakala  (N20.707384 W156.255910)  US/Hawaii. 1.8-m
   Ritchey-Chrétien + CCD.

Orbital elements:  P21kWrT
   Perihelion 2021 Aug 12.703403 +/- 28.7966 TT = 16:52:54 (JD 2459439.203403)
Epoch 2021 Sep 11.0 TT = JDT 2459468.5   Earth MOID: 0.0081   AutoNEOCP
M  23.62897885 +/- 31.365331        (J2000 ecliptic)
n   0.80654346 +/- 0.507553         Peri.  152.05692 +/- 59.034318
a   1.14301219 +/- 0.479518         Node   165.58084 +/- 25.098369
e   0.1186027 +/- 0.247233          Incl.    2.86676 +/- 10.645086
P   1.22/446.34d           H 27.9   G  0.15   U 12.3  SR
q 1.00744776 +/- 0.34287    Q 1.27857663 +/- 31.612
From 3 observations 2021 Sept. 11 (29.5 min); mean residual 0".15
Residuals in arcseconds: 
210911 F52  .12-  .08+    210911 F52  .24+  .17-    210911 F52  .12-  .08+    

Ephemerides (geocentric):
Date (UTC) HH   RA              Dec         delta   r     elong  mag " sig PA
---- -- -- --  -------------   -----------  ------ ------ -----  --- ---- ---
2021 09 16 13  22 35 08.554   -25 38 45.37  .02507 1.0276 152.6 21.1  34d 164
2021 09 16 14  22 35 41.519   -25 38 59.83  .02512 1.0277 152.6 21.1  34d 164
2021 09 16 15  22 36 14.342   -25 39 13.67  .02518 1.0277 152.7 21.1  34d 164
2021 09 16 16  22 36 47.025   -25 39 26.88  .02524 1.0277 152.7 21.1  34d 164
2021 09 16 17  22 37 19.569   -25 39 39.48  .02529 1.0278 152.7 21.1  34d 164
2021 09 16 18  22 37 51.973   -25 39 51.48  .02535 1.0278 152.8 21.1  34d 164
2021 09 16 19  22 38 24.238   -25 40 02.87  .02541 1.0279 152.8 21.1  35d 164
2021 09 16 20  22 38 56.365   -25 40 13.67  .02547 1.0279 152.8 21.1  35d 164
2021 09 16 21  22 39 28.354   -25 40 23.89  .02553 1.0280 152.9 21.1  35d 164
2021 09 16 22  22 40 00.206   -25 40 33.52  .02558 1.0280 152.9 21.1  35d 164
2021 09 16 23  22 40 31.920   -25 40 42.57  .02564 1.0281 152.9 21.2  35d 164
2021 09 17 00  22 41 03.499   -25 40 51.06  .02570 1.0281 153.0 21.2  35d 164
2021 09 17 01  22 41 34.942   -25 40 58.98  .02576 1.0282 153.0 21.2  35d 164
2021 09 17 02  22 42 06.249   -25 41 06.35  .02582 1.0282 153.0 21.2  35d 164
2021 09 17 03  22 42 37.422   -25 41 13.17  .02587 1.0283 153.0 21.2  35d 164
2021 09 17 04  22 43 08.461   -25 41 19.44  .02593 1.0283 153.1 21.2  35d 164
2021 09 17 05  22 43 39.365   -25 41 25.17  .02599 1.0283 153.1 21.2  35d 164
2021 09 17 06  22 44 10.137   -25 41 30.37  .02605 1.0284 153.1 21.2  35d 164
2021 09 17 07  22 44 40.776   -25 41 35.04  .02611 1.0284 153.1 21.2  35d 164
2021 09 17 08  22 45 11.282   -25 41 39.19  .02617 1.0285 153.2 21.2  35d 164
2021 09 17 09  22 45 41.657   -25 41 42.83  .02623 1.0285 153.2 21.2  36d 164
2021 09 17 10  22 46 11.901   -25 41 45.96  .02629 1.0286 153.2 21.2  36d 164
2021 09 17 11  22 46 42.014   -25 41 48.58  .02635 1.0286 153.3 21.2  36d 164
2021 09 17 12  22 47 11.996   -25 41 50.70  .02641 1.0287 153.3 21.2  36d 164
2021 09 17 13  22 47 41.850   -25 41 52.33  .02647 1.0287 153.3 21.2  36d 164
2021 09 17 14  22 48 11.574   -25 41 53.47  .02653 1.0288 153.3 21.2  36d 164
2021 09 17 15  22 48 41.169   -25 41 54.13  .02659 1.0288 153.4 21.2  36d 164
2021 09 17 16  22 49 10.637   -25 41 54.31  .02665 1.0289 153.4 21.2  36d 164
2021 09 17 17  22 49 39.977   -25 41 54.03  .02671 1.0289 153.4 21.2  36d 164
2021 09 17 18  22 50 09.189   -25 41 53.27  .02677 1.0290 153.4 21.2  36d 164
2021 09 17 19  22 50 38.276   -25 41 52.05  .02683 1.0290 153.4 21.2  36d 164
2021 09 17 20  22 51 07.236   -25 41 50.38  .02689 1.0291 153.5 21.2  36d 164
2021 09 17 21  22 51 36.071   -25 41 48.26  .02695 1.0291 153.5 21.2  36d 164
2021 09 17 22  22 52 04.781   -25 41 45.69  .02701 1.0291 153.5 21.3  36d 164
2021 09 17 23  22 52 33.366   -25 41 42.68  .02707 1.0292 153.5 21.3  36d 164
2021 09 18 00  22 53 01.828   -25 41 39.23  .02713 1.0292 153.6 21.3  36d 164
2021 09 18 01  22 53 30.166   -25 41 35.36  .02719 1.0293 153.6 21.3  36d 164
2021 09 18 02  22 53 58.382   -25 41 31.05  .02725 1.0293 153.6 21.3  36d 164
2021 09 18 03  22 54 26.475   -25 41 26.33  .02731 1.0294 153.6 21.3  37d 164
2021 09 18 04  22 54 54.446   -25 41 21.19  .02737 1.0294 153.6 21.3  37d 164
2021 09 18 05  22 55 22.296   -25 41 15.64  .02744 1.0295 153.7 21.3  37d 164
2021 09 18 06  22 55 50.025   -25 41 09.68  .02750 1.0295 153.7 21.3  37d 164
2021 09 18 07  22 56 17.634   -25 41 03.31  .02756 1.0296 153.7 21.3  37d 164
2021 09 18 08  22 56 45.123   -25 40 56.56  .02762 1.0296 153.7 21.3  37d 164
2021 09 18 09  22 57 12.493   -25 40 49.40  .02768 1.0297 153.7 21.3  37d 164
2021 09 18 10  22 57 39.744   -25 40 41.86  .02774 1.0297 153.7 21.3  37d 164
2021 09 18 11  22 58 06.877   -25 40 33.94  .02781 1.0298 153.8 21.3  37d 164
2021 09 18 12  22 58 33.892   -25 40 25.63  .02787 1.0298 153.8 21.3  37d 164